Location: Burbank
(38.7788°N, 114.0429°W)
Time: 22:34:46
(UTC+00:00)

Transit 2A - Pass Details

Date: 11 May 2026
Orbit: 595 x 949 km, 66.7° (Epoch: 5 June)

Event Time Altitude Azimuth Distance (km) Brightness Sun altitude
Rises 08:03:40 0° 343° (NNW) 3,204 10.1 -32.8°
Reaches altitude 10° 08:06:48 10° 1° (N) 2,204 9.2 -32.7°
Maximum altitude 08:10:20 19° 46° (NE) 1,597 8.1 -32.6°
Enters shadow 08:11:42 17° 68° (ENE) 1,667 8.0 -32.6°
Drops below altitude 10° 08:13:40 10° 92° (E) 2,053 - -32.5°
Sets 08:16:27 0° 111° (ESE) 2,910 - -32.4°
